User: anonymous   Login
Location: Paris
(18.5000°N, 73.9167°W)
Time: 15:09:52
(UTC+00:00)
Language:

DELTA 2 R/B (1) - Orbit

View from above orbital plane
View from above orbital plane
View from above satellite
View from above satellite

Ground track
Ground track

The orbit data is extracted from the following two-line orbital elements,

1 27665U 03005C   24165.82918047  .00000191  00000-0  10811-3 0  9996
2 27665  39.5763  64.5041 0009410 304.2017 169.0812 14.29022742116077
Epoch (UTC): 13 June 2024 19:54:01
Eccentricity: 0.0009410
inclination: 39.5763°
perigee height: 788 km
apogee height: 802 km
right ascension of ascending node: 64.5041°
argument of perigee: 304.2017°
revolutions per day: 14.29022742
mean anomaly at epoch: 169.0812°
orbit number at epoch: 11607

The dashed part of the orbit path shows where the satellite is in the earth's shadow,  

DLR